www.pogodaiklimat.ru
ПОГОДА в Куле

Архив погоды в Куле (Кашкадарьинская область, Узбекистан)

Время
и дата
03:50 17.04
04:00 17.04
04:20 17.04
04:30 17.04
04:40 17.04
04:50 17.04
05:00 17.04
05:10 17.04
05:20 17.04
05:30 17.04
05:40 17.04
05:50 17.04
06:00 17.04
06:10 17.04
06:20 17.04
06:30 17.04
06:40 17.04
06:50 17.04
07:00 17.04
07:10 17.04
07:20 17.04
08:30 17.04
08:50 17.04
10:40 17.04
16:20 17.04
16:40 17.04
16:50 17.04
17:00 17.04
17:10 17.04
17:20 17.04
17:30 17.04
17:40 17.04
17:50 17.04
18:00 17.04
18:10 17.04
18:20 17.04
18:30 17.04
18:40 17.04
18:50 17.04
19:00 17.04
19:10 17.04
19:20 17.04
19:30 17.04
19:40 17.04
19:50 17.04
20:00 17.04
20:10 17.04
20:20 17.04
20:30 17.04
20:40 17.04
20:50 17.04
21:00 17.04
21:10 17.04
21:20 17.04
21:30 17.04
21:40 17.04
21:50 17.04
22:00 17.04
22:10 17.04
22:20 17.04
22:30 17.04
22:40 17.04
22:50 17.04
23:00 17.04
23:10 17.04
23:20 17.04
23:30 17.04
23:40 17.04
23:50 17.04
00:00 18.04
00:10 18.04
00:20 18.04
01:10 18.04
01:20 18.04
01:30 18.04
01:40 18.04
01:50 18.04
02:00 18.04
02:10 18.04
02:20 18.04
02:30 18.04
02:40 18.04
02:50 18.04
03:00 18.04
03:10 18.04
03:20 18.04
03:30 18.04
03:40 18.04
03:50 18.04
04:00 18.04
04:10 18.04
04:20 18.04
04:30 18.04
04:40 18.04
04:50 18.04
05:00 18.04
05:40 18.04
05:50 18.04
06:00 18.04
06:10 18.04
06:20 18.04
06:30 18.04
06:40 18.04
06:50 18.04
07:00 18.04
07:10 18.04
07:20 18.04
07:40 18.04
07:50 18.04
08:00 18.04
08:10 18.04
10:50 18.04
11:30 18.04
12:10 20.04
12:20 20.04
12:30 20.04
12:40 20.04
12:50 20.04
13:00 20.04
13:10 20.04
13:20 20.04
13:30 20.04
13:50 20.04
14:00 20.04
14:10 20.04
14:20 20.04
14:30 20.04
14:40 20.04
15:00 20.04
15:10 20.04
15:20 20.04
15:40 20.04
15:50 20.04
17:00 20.04
17:10 20.04
17:20 20.04
17:30 20.04
17:50 20.04
18:00 20.04
18:10 20.04
18:30 20.04
18:40 20.04
18:50 20.04
19:10 20.04
Ветер
(напр.,м/с)
Видимость Явления Солнечная радиация
(Вт/м2)
Т
(С)
Тd
(С)
f
(%)
Тe
(С)
Тes
(С)
Комфортность P
(гПа)
Po
(гПа)
Тmin
(С)
Tmax
(С)
R
(мм)
СВ 1.3
{2.0}
+3.1 +3.1 100 +1 +1 1025.3 789.0 +3.1 +2.8
В 1.4
{2.3}
+3.1 +3.1 100 +1 +1 1025.3 789.0 +3.3 +3.1
В 1.0
{1.8}
+2.8 +2.8 100 +1 +1 1025.2 788.9 +3.0 +2.6
В 0.6
{1.3}
+2.7 +2.7 100 +2 +2 1025.2 788.9 +2.8 +2.7
В 0.4
{0.7}
+2.6 +2.6 100 +2 +2 1025.1 788.8 +2.7 +2.6
С 0.4
{1.2}
+2.7 +2.7 100 +3 +3 1024.8 788.6 +2.7 +2.6
СЗ 0.8
{1.6}
+2.4 +2.4 100 +1 +1 1024.7 788.5 +2.7 +2.4
СЗ 0.6
{1.3}
+2.3 +2.3 100 +1 +1 1024.6 788.4 +2.5 +2.3
СВ 0.7
{1.2}
+2.5 +2.5 100 +1 +1 1024.6 788.4 +2.5 +2.3
С 1.4
{2.5}
+2.6 +2.6 100 0 0 1024.6 788.4 +2.6 +2.4
В 1.4
{2.4}
+3.1 +1.5 89 +1 +1 1024.6 788.4 +3.1 +2.6
СВ 0.9
{2.3}
+2.9 +2.0 94 +1 +1 1024.6 788.4 +3.2 +2.9
В 1.3
{2.5}
+2.6 +1.7 94 0 0 1024.7 788.5 +2.9 +2.6
В 1.6
{2.7}
+2.8 +2.2 96 0 0 1024.7 788.5 +2.8 +2.6
ЮВ 0.7
{2.0}
+2.8 +1.0 88 +2 +2 1024.7 788.5 +2.8 +2.6
ЮВ 0.6
{1.1}
+2.5 +1.2 91 +2 +2 1024.7 788.5 +2.8 +2.4
В 0.7
{1.3}
+2.6 +1.2 91 +2 +2 1024.8 788.6 +2.6 +2.5
В 0.8
{1.5}
+2.7 +2.2 97 +1 +1 1024.8 788.6 +2.9 +2.6
СВ 1.1
{1.9}
+3.4 +2.0 91 +2 +2 1024.9 788.7 +3.4 +2.7
В 1.2
{2.1}
+3.1 +1.8 91 +1 +1 1025.1 788.8 +3.4 +2.9
СВ 0.8
{2.2}
+4.5 +3.0 90 +3 +3 1024.9 788.7 +4.4 +3.1
ЮВ 1.3
{2.2}
+8.3 -0.6 53 +8 +8 1024.0 787.9 +8.3 +8.2
В 0.9
{1.6}
+9.4 -1.8 45 +10 +10 1024.0 787.9 +9.4 +8.8
ЮЗ 1.1
{2.4}
+13.1 -3.4 32 +14 +14 1023.3 787.3 +13.2 +12.9
З 2.2
{5.6}
+14.5 +6.8 60 +14 +14 1020.8 785.3 +14.7 +14.2
ЮЗ 1.9
{4.1}
+14.9 +6.2 56 +15 +15 1020.7 785.2 +14.9 +14.6
ЮЗ 1.8
{3.1}
+14.6 +7.1 61 +15 +15 1020.6 785.1 +15.0 +14.5
ЮЗ 2.1
{4.0}
+14.1 +7.2 63 +14 +14 1020.6 785.1 +14.6 +14.1
ЮЗ 1.6
{3.2}
+14.1 +5.7 57 +14 +14 1020.5 785.0 +14.2 +14.0
ЮЗ 2.1
{4.1}
+14.1 +6.5 60 +14 +14 1020.5 785.0 +14.2 +14.0
ЮЗ 1.9
{3.5}
+13.9 +7.4 65 +14 +14 1020.5 785.0 +14.1 +13.7
ЮЗ 2.1
{3.9}
+13.6 +6.8 63 +13 +13 1020.5 785.0 +14.0 +13.6
ЮЗ 2.8
{4.6}
+13.0 +6.4 64 +12 +12 1020.6 785.1 +13.6 +13.0
ЮЗ 1.9
{3.9}
+12.6 +6.4 66 +12 +12 1020.5 785.0 +13.0 +12.6
ЮЗ 2.4
{4.2}
+12.1 +6.9 70 +11 +11 1020.5 785.0 +12.6 +12.1
ЮЗ 1.9
{3.5}
+12.0 +7.8 75 +11 +11 1020.6 785.1 +12.1 +12.0
ЮЗ 1.8
{3.4}
+11.6 +8.2 80 +11 +11 1020.6 785.1 +12.0 +11.6
ЮЗ 1.9
{3.2}
+11.2 +7.9 80 +10 +10 1020.6 785.1 +11.6 +11.2
ЮЗ 1.7
{3.0}
+10.9 +9.1 89 +10 +10 1020.6 785.1 +11.2 +10.9
ЮЗ 1.9
{3.5}
+10.4 +9.4 93 +9 +9 1020.5 785.0 +10.9 +10.4
ЮЗ 1.2
{2.5}
+10.2 +10.2 100 +9 +9 1020.5 785.0 +10.4 +10.2
Ю 0.9
{2.2}
+9.9 +9.9 100 +9 +9 1020.5 785.0 +10.2 +9.9
ЮВ 1.0
{2.2}
+9.6 +9.6 100 +9 +9 1020.6 785.1 +9.9 +9.6
В 1.7
{3.1}
+9.4 +9.4 100 +8 +8 1020.6 785.1 +9.6 +9.4
В 1.3
{2.2}
+9.2 +9.2 100 +8 +8 1020.5 785.0 +9.4 +9.2
В 1.3
{2.3}
+9.0 +9.0 100 +8 +8 1020.6 785.1 +9.2 +9.0
СВ 0.7
{1.8}
+8.9 +8.9 100 +9 +9 1020.6 785.1 +9.0 +8.9
В 1.6
{2.2}
+8.5 +8.5 100 +7 +7 1020.7 785.2 +8.9 +8.5
В 1.3
{2.6}
+8.3 +8.3 100 +7 +7 1020.8 785.3 +8.5 +8.3
В 1.3
{1.8}
+8.2 +8.2 100 +7 +7 1020.8 785.3 +8.3 +8.2
В 1.6
{2.3}
+8.0 +8.0 100 +6 +6 1020.8 785.3 +8.2 +8.0
В 0.9
{2.0}
+7.8 +7.8 100 +7 +7 1021.0 785.4 +8.0 +7.7
В 0.7
{1.1}
+7.5 +7.5 100 +7 +7 1021.0 785.4 +7.8 +7.5
В 0.7
{1.5}
+7.4 +7.4 100 +7 +7 1021.0 785.4 +7.5 +7.4
В 1.4
{1.9}
+7.4 +7.4 100 +6 +6 1020.8 785.3 +7.4 +7.3
В 1.6
{2.2}
+7.4 +7.4 100 +5 +5 1020.8 785.3 +7.4 +7.4
В 1.0
{2.0}
+7.2 +7.2 100 +6 +6 1020.7 785.2 +7.4 +7.2
ЮВ 0.6
{1.2}
+7.0 +7.0 100 +7 +7 1020.6 785.1 +7.2 +7.0
В 0.8
{1.5}
+7.0 +7.0 100 +6 +6 1020.6 785.1 +7.0 +6.9
СВ 1.3
{2.1}
+6.7 +6.7 100 +5 +5 1020.5 785.0 +7.0 +6.7
В 1.3
{1.9}
+6.9 +6.9 100 +5 +5 1020.5 785.0 +6.9 +6.7
В 1.2
{2.1}
+7.0 +7.0 100 +5 +5 1020.5 785.0 +7.0 +6.9
ЮВ 0.7
{1.2}
+6.6 +6.6 100 +6 +6 1020.5 785.0 +7.0 +6.6
Ю 0.7
{1.3}
+6.3 +6.3 100 +6 +6 1020.5 785.0 +6.7 +6.3
СВ 0.5
{1.0}
+6.2 +6.2 100 +6 +6 1020.5 785.0 +6.3 +6.2
В 0.7
{1.5}
+6.2 +6.2 100 +5 +5 1020.3 784.9 +6.2 +6.1
В 1.0
{1.6}
+6.3 +6.3 100 +5 +5 1020.2 784.8 +6.4 +6.2
В 0.8
{1.8}
+6.4 +6.4 100 +5 +5 1020.1 784.7 +6.4 +6.3
В 0.6
{1.1}
+6.1 +6.1 100 +6 +6 1020.1 784.7 +6.4 +6.1
СЗ 0.4
{0.9}
+5.7 +5.7 100 +6 +6 1020.0 784.6 +6.1 +5.7
СВ 0.6
{1.6}
+5.9 +5.9 100 +5 +5 1020.0 784.6 +5.9 +5.7
В 1.0
{2.2}
+6.2 +6.2 100 +5 +5 1019.8 784.5 +6.3 +5.9
В 1.3
{2.2}
+5.9 +5.9 100 +4 +4 1019.1 783.9 +6.0 +5.9
В 1.2
{1.8}
+6.0 +6.0 100 +4 +4 1019.0 783.8 +6.1 +5.9
В 1.1
{1.6}
+5.9 +5.9 100 +4 +4 1018.9 783.7 +6.0 +5.9
В 1.4
{1.8}
+5.7 +5.7 100 +4 +4 1018.7 783.6 +5.9 +5.7
В 1.3
{2.0}
+5.8 +5.8 100 +4 +4 1018.6 783.5 +5.8 +5.7
В 1.5
{2.7}
+5.6 +5.6 100 +3 +3 1018.6 783.5 +5.8 +5.6
В 1.5
{2.4}
+5.5 +5.5 100 +3 +3 1018.5 783.4 +5.6 +5.5
В 1.0
{2.1}
+5.4 +5.4 100 +4 +4 1018.4 783.3 +5.5 +5.4
В 1.0
{2.0}
+5.4 +5.3 99 +4 +4 1018.2 783.2 +5.4 +5.3
В 1.6
{2.6}
+5.5 +4.5 94 +3 +3 1018.2 783.2 +5.5 +5.3
В 1.5
{2.5}
+5.4 +4.9 97 +3 +3 1018.2 783.2 +5.5 +5.4
В 0.9
{2.6}
+5.2 +3.5 89 +4 +4 1018.2 783.2 +5.4 +5.2
С 1.1
{2.8}
+5.5 +5.5 100 +4 +4 1018.2 783.2 +5.6 +5.2
СВ 1.9
{3.3}
+5.3 +4.4 94 +3 +3 1018.1 783.1 +5.5 +5.2
В 1.6
{3.3}
+5.3 +3.9 91 +3 +3 1018.1 783.1 +5.3 +5.2
В 1.4
{3.4}
+4.9 +3.6 91 +3 +3 1018.1 783.1 +5.3 +4.9
В 1.0
{2.3}
+4.9 +3.5 90 +4 +4 1018.2 783.2 +5.0 +4.9
В 1.3
{2.4}
+4.7 +3.3 90 +3 +3 1018.1 783.1 +5.0 +4.7
В 1.7
{3.3}
+4.9 +2.5 85 +3 +3 1018.1 783.1 +4.9 +4.7
В 1.4
{2.5}
+4.8 +2.7 86 +3 +3 1018.1 783.1 +5.0 +4.8
В 0.8
{1.6}
+4.9 +2.1 82 +4 +4 1018.1 783.1 +4.9 +4.8
В 1.2
{2.7}
+5.1 +2.3 82 +4 +4 1018.1 783.1 +5.1 +4.8
С 1.0
{2.8}
+4.5 +2.6 87 +3 +3 1018.0 783.0 +5.1 +4.5
СВ 0.6
{1.3}
+4.8 -1.0 66 +5 +5 1018.0 783.0 +4.8 +4.5
В 0.5
{1.9}
+4.9 -3.0 57 +5 +5 1018.1 783.1 +5.1 +4.8
В 0.8
{2.0}
+4.5 -2.3 61 +4 +4 1018.1 783.1 +4.9 +4.5
СВ 0.8
{1.6}
+5.0 -3.8 53 +5 +5 1018.1 783.1 +5.0 +4.4
СВ 0.8
{2.2}
+5.0 -4.6 50 +5 +5 1018.1 783.1 +5.0 +4.9
В 1.0
{2.8}
+5.2 -4.4 50 +5 +5 1018.1 783.1 +5.2 +5.0
В 0.4
{1.1}
+4.8 -4.4 51 +6 +6 1018.1 783.1 +5.2 +4.8
СВ 0.5
{1.3}
+5.0 -5.4 47 +6 +6 1018.1 783.1 +5.0 +4.8
С 0.3
{0.7}
+4.8 -4.5 51 +6 +6 1018.1 783.1 +5.0 +4.6
СЗ 0.5
{0.9}
+5.4 -5.7 45 +6 +6 1018.1 783.1 +5.4 +4.8
В 1.0
{1.9}
+5.9 -3.8 50 +5 +5 1018.0 783.0 +5.9 +5.4
В 0.5
{1.6}
+7.0 -4.1 45 +8 +8 1018.0 783.0 +7.0 +5.9
Ю 0.4
{0.9}
+8.6 -5.4 37 +10 +10 1018.0 783.0 +8.6 +7.8
СВ 0.4
{1.3}
+9.7 -2.6 42 +11 +11 1018.0 783.0 +9.7 +8.6
В 1.0
{1.8}
+10.3 -2.4 41 +10 +10 1018.0 783.0 +10.3 +9.7
СВ 0.4
{1.1}
+11.0 -7.5 27 +13 +13 1017.9 782.9 +11.0 +10.3
ЮЗ 1.7
{3.0}
+15.9 -0.8 32 +16 +16 1017.7 782.8 +15.9 +14.9
ЮЗ 1.8
{3.5}
+16.2 -8.1 18 +17 +17 1017.5 782.6 +16.2 +15.7
С 1.5
{2.6}
+14.2 +10.5 79 +14 +14 1018.1 783.1 +14.4 +13.9
ЮЗ 2.1
{4.1}
+14.7 +10.0 73 +14 +14 1018.0 783.0 +14.7 +14.2
ЮЗ 2.5
{4.8}
+15.0 +9.7 71 +15 +15 1018.0 783.0 +15.1 +14.7
ЮЗ 2.3
{5.6}
+14.6 +10.4 76 +14 +14 1018.0 783.0 +15.0 +14.6
ЮЗ 2.1
{4.9}
+14.5 +9.9 74 +14 +14 1018.0 783.0 +14.7 +14.5
ЮЗ 2.7
{5.1}
+14.6 +10.7 78 +14 +14 1018.1 783.1 +14.7 +14.4
ЮЗ 2.8
{5.5}
+14.6 +11.4 81 +14 +14 1018.0 783.0 +14.8 +14.5
ЮЗ 3.1
{6.9}
+13.7 +10.7 82 +13 +13 1018.1 783.1 +14.6 +13.7
ЮЗ 3.2
{6.6}
+13.1 +11.8 92 +12 +12 1018.2 783.2 +13.7 +13.1
ЮЗ 2.7
{5.2}
+12.4 +11.1 91 +11 +11 1018.5 783.4 +12.9 +12.4
З 2.6
{5.2}
+12.7 +11.8 94 +11 +11 1018.5 783.4 +12.7 +12.3
ЮЗ 2.3
{4.8}
+12.2 +11.6 96 +11 +11 1018.5 783.4 +12.8 +12.3
З 2.4
{5.5}
+11.6 +11.6 100 +10 +10 1018.6 783.5 +12.2 +11.6
ЮЗ 2.3
{4.0}
+11.0 +11.0 100 +9 +9 1018.7 783.6 +11.6 +11.0
З 1.6
{4.6}
+10.0 +10.0 100 +9 +9 1018.9 783.7 +11.0 +10.1
В 1.9
{3.5}
+9.2 +9.2 100 +7 +7 1019.0 783.8 +9.4 +9.2
В 1.9
{3.4}
+9.0 +9.0 100 +7 +7 1019.0 783.8 +9.2 +9.0
В 1.7
{4.0}
+8.9 +8.9 100 +7 +7 1019.1 783.9 +9.0 +8.9
В 1.2
{2.4}
+9.3 +9.3 100 +8 +8 1019.2 784.0 +9.3 +9.1
ЮЗ 0.9
{1.9}
+9.1 +9.1 100 +8 +8 1019.5 784.2 +9.4 +9.1
ЮЗ 1.8
{3.6}
+7.6 +7.6 100 +5 +5 1020.3 784.9 +8.0 +7.6
ЮЗ 1.6
{2.9}
+7.3 +7.3 100 +5 +5 1020.5 785.0 +7.6 +7.3
Ю 1.1
{2.1}
+7.2 +7.2 100 +6 +6 1020.6 785.1 +7.3 +7.2
Ю 1.0
{2.0}
+7.2 +7.2 100 +6 +6 1020.7 785.2 +7.3 +7.1
З 0.3
{0.9}
+7.2 +7.2 100 +8 +8 1020.7 785.2 +7.2 +7.1
СВ 0.3
{0.7}
+7.4 +7.4 100 +8 +8 1020.7 785.2 +7.4 +7.2
СЗ 0.7
{1.4}
+7.3 +7.3 100 +7 +7 1020.7 785.2 +7.4 +7.3
С 0.4
{0.8}
+7.3 +7.3 100 +8 +8 1020.6 785.1 +7.3 +7.3
ЮЗ 0.5
{1.0}
+7.3 +7.3 100 +7 +7 1020.6 785.1 +7.3 +7.2
З 0.7
{1.1}
+7.1 +7.1 100 +6 +6 1020.6 785.1 +7.3 +7.1
З 0.8
{1.3}
+6.9 +6.9 100 +6 +6 1020.5 785.0 +6.9 +6.9
Местоположение метеостанции Куль (Кашкадарьинская область, Узбекистан): широта 39.31 долгота 67.39 высота над уровнем моря 0 м.
В архиве по умолчанию представлена погода в Куле за последние 1-2 суток. Обновление информации о фактической погоде в базе происходит ежечасно! Архивные данные за месяц целиком и за предыдущие месяцы Вы можете получить, выбрав интересующий диапазон дат из раскрывающегося списка и нажав кнопку "Ввод!".
*Определитесь, кто Вы:
Внимание! Время в таблицах - местное (без учета летнего времени). Для получения всемирного времени необходимо вычесть поправку, которая равна 5 ч.
Смотрите также архив погоды на ближайших метеорологических станциях:
Партнеры нашего сайта:      
Пояснения к столбцам:
  • Ветер - указаны скорость ветра в м/с - средняя за 10 мин, порывы в срок и между сроками (в фигурных скобках) и направление, откуда дует ветер: С - северный,
  • СВ - северо-восточный, В - восточный, ЮВ - юго-восточный, Ю - южный, ЮЗ - юго-западный, З - западный, СЗ - северо-западный.
  • Видимость - горизонтальная дальность видимости в метрах или километрах. При видимости от 1 до 10 км при отсутствии осадков обычно наблюдается дымка, при ухудшении видимости до 1 км и менее - туман. В сухую погоду видимость может ухудшаться дымом, пылью или мглою.
  • Явления - указаны атмосферные явления, наблюдавшиеся в срок или в последний час перед сроком.
  • Солнечная радиация - мощность потока солнечного излучения на поверхность земли и предметов в Вт/м2.
  • T - Температура воздуха - температура, измеренная на высоте 2 м над землей.
  • Td - Температура точки росы - температура, при понижении до которой содержащийся в воздухе водяной пар достигнет насыщения.
  • f - Относительная влажность воздуха - влажноcть воздуха, измеренная на высоте 2 м над землей.
  • Te - Эффективная температура - температура, которую ощущает одетый по сезону человек в тени. Характеристика душности погоды. При расчете учитывается влияние влажности воздуха и скорости ветра на теплоощущения человека.
  • Tes - Эффективная температура на солнце - температура, которую ощущает человек, с поправкой на солнечный нагрев. Характеристика знойности погоды. Зависит от высоты солнца над горизонтом, облачности и скорости ветра. Ночью, в пасмурную погоду, а также при ветре 12 м/с и более поправка равна нулю.
  • P - Атмосферное давление - приведенное к уровню моря атмосферное давление.
  • Po - Атмосферное давление - измеренное на уровне метеостанции атмосферное давление.
  • Tmin - Минимальная температура - минимум температуры воздуха на высоте 2 м над землей.
  • Tmax - Максимальная температура - максимум температуры воздуха на высоте 2 м над землей.
  • R - Количество осадков - Количество выпавших осадков за период времени, мм. При наведении курсора мыши на число - период времени, за который выпало указанное количество осадков.